Miscellaneous Local Product
Issued by NWS Hastings, NE

Home | Current Version | Previous Version | Graphics & Text | Print | Product List | Glossary On
Versions: 1 2 3 4 5 6 7 8 9 10 11 12 13 14 15 16 17 18 19 20 21 22 23 24 25 26 27 28 29 30 31 32 33 34 35 36 37 38 39 40 41 42 43 44 45 46 47 48 49 50
000
AXUS43 KGID 271802
MISGRI

GID CWA HOURLY WEATHER ROUNDUP
NATIONAL WEATHER SERVICE HASTINGS NE
1200 PM CST FRI FEB 27 2015

NOTE: "FAIR" INDICATES FEW OR NO CLOUDS BELOW 12,000 FEET WITH NO
SIGNIFICANT WEATHER AND/OR OBSTRUCTIONS TO VISIBILITY.

...SOUTH CENTRAL NEBRASKA...

CITY           SKY/WX    TMP DP  RH WIND       PRES   REMARKS
GRAND ISLAND   SUNNY     15  -1  49 CALM      30.51F
HASTINGS       SUNNY     16  -3  43 VRB5      30.48F WCI   9
KEARNEY        SUNNY     16  -2  45 S6        30.46F WCI   7
ORD            SUNNY     17  -4  39 S14       30.45F WCI   3
YORK           SUNNY     14   0  52 SE5       30.55S WCI   6
AURORA         SUNNY     14  -1  50 CALM      30.51F
LEXINGTON      SUNNY     17   0  47 S8        30.42F WCI   7
HOLDREGE       SUNNY     15  -2  46 S6        30.45F WCI   6
HEBRON         MOSUNNY   15  -1  49 CALM      30.56F

...NEBRASKA PANHANDLE...

CITY           SKY/WX    TMP DP  RH WIND       PRES   REMARKS
CHADRON        MOSUNNY   20  10  65 S18       30.16F WCI   5
ALLIANCE       CLOUDY    17   8  67 S21G28    30.14F WCI   0
SCOTTSBLUFF    CLOUDY    20   8  60 S17G30    30.12F WCI   5
SIDNEY         LGT SNOW  16   8  71 S22       30.14F WCI  -2

...WESTERN AND NORTH CENTRAL NEBRASKA...

CITY           SKY/WX    TMP DP  RH WIND       PRES   REMARKS
VALENTINE      SUNNY     18   0  45 S13       30.32F WCI   5
AINSWORTH      SUNNY     17  -1  45 SW9       30.35F WCI   6
ONEILL         SUNNY     17   3  54 S10       30.44F WCI   5
BROKEN BOW     SUNNY     17   0  47 S9        30.39F WCI   6
IMPERIAL       CLOUDY    18   7  62 SE18      30.28F WCI   2
NORTH PLATTE   CLOUDY    17  -1  45 S16       30.35F WCI   2
MCCOOK         CLOUDY    19   2  47 S10       30.39F WCI   7

...EASTERN NEBRASKA...

CITY           SKY/WX    TMP DP  RH WIND       PRES   REMARKS
NORFOLK        SUNNY     14  -2  49 SW5       30.51F WCI   6
SO SIOUX CITY  SUNNY     11  -2  56 SW5       30.60F WCI   3
TEKAMAH        SUNNY     11   0  61 CALM      30.62F
COLUMBUS       SUNNY     12  -6  44 S8        30.56F WCI   1
ALBION         SUNNY     15   0  52 S3        30.50F
OMAHA EPPLEY   MOSUNNY   11   2  67 CALM      30.63S
OFFUTT AFB     SUNNY     12  -3  51 VRB1      30.61F
MILLARD        SUNNY     12  -2  53 S3        30.62F
LINCOLN        SUNNY     16   0  49 CALM      30.61F
NEBRASKA CITY  SUNNY     13  -3  49 CALM      30.62S
BEATRICE       SUNNY     13  -1  53 CALM      30.59F
FALLS CITY     SUNNY     14  -1  51 VRB3      30.63F

...NORTHERN KANSAS...

CITY           SKY/WX    TMP DP  RH WIND       PRES   REMARKS
GOODLAND       LGT SNOW  15   9  76 S18G24    30.27S WCI  -2
HILL CITY      PTSUNNY   17  -1  45 SE7       30.46F WCI   8
NORTON         MOCLDY    19  -2  38 SE8       30.42F WCI   9
PHILLIPSBURG   SUNNY     19   1  45 E7        30.49F WCI  10
HAYS           CLOUDY    16  -6  38 E10       30.47F WCI   3
RUSSELL        CLOUDY    16   0  49 SE6       30.49F WCI   7
CONCORDIA      MOSUNNY   15   2  56 MISG      30.56F
SALINA         MOSUNNY   17   0  47 VRB7      30.58F WCI   8
TOPEKA         CLOUDY    14  -1  51 E3        30.65F



USA.gov is the U.S. government's official web portal to all federal, state and local government web resources and services.